This is the latest recevied weather packets stored in our database for station/object F4WDE-10. If no packets are shown the sender has not sent any weather packets the latest 10 day(s).
| Time | Temp. | Humidity | Pressure | Rain* | Wind** | Luminosity | Snow |
|---|---|---|---|---|---|---|---|
| 1777710943 | 20° C | 30% | 971 hPa | - | - | - | - |
| 1777710042 | 20° C | 30% | 971 hPa | - | - | - | - |
| 1777709141 | 19.44° C | 31% | 971 hPa | - | - | - | - |
| 1777708240 | 18.89° C | 33% | 971 hPa | - | - | - | - |
| 1777707339 | 18.33° C | 35% | 971 hPa | - | - | - | - |
| 1777706438 | 17.78° C | 35% | 971 hPa | - | - | - | - |
| 1777705536 | 17.22° C | 35% | 971 hPa | - | - | - | - |
| 1777704635 | 16.67° C | 34% | 971 hPa | - | - | - | - |
| 1777703734 | 16.11° C | 36% | 970 hPa | - | - | - | - |
| 1777702833 | 16.11° C | 38% | 970 hPa | - | - | - | - |
| 1777701932 | 15.56° C | 40% | 970 hPa | - | - | - | - |
| 1777701031 | 15.56° C | 41% | 970 hPa | - | - | - | - |
| 1777700130 | 15° C | 44% | 970 hPa | - | - | - | - |
| 1777699229 | 15° C | 44% | 970 hPa | - | - | - | - |
| 1777698328 | 14.44° C | 45% | 970 hPa | - | - | - | - |
| 1777697427 | 14.44° C | 49% | 970 hPa | - | - | - | - |
| 1777696525 | 13.89° C | 53% | 970 hPa | - | - | - | - |
| 1777695624 | 13.89° C | 55% | 970 hPa | - | - | - | - |
| 1777694723 | 14.44° C | 56% | 970 hPa | - | - | - | - |
| 1777693822 | 14.44° C | 57% | 970 hPa | - | - | - | - |
| 1777692921 | 14.44° C | 57% | 970 hPa | - | - | - | - |
| 1777692020 | 14.44° C | 58% | 970 hPa | - | - | - | - |
| 1777691119 | 15° C | 55% | 970 hPa | - | - | - | - |
| 1777690218 | 15° C | 52% | 970 hPa | - | - | - | - |
| 1777689316 | 15° C | 50% | 970 hPa | - | - | - | - |
* Rain since midnight (hover to see other rain measurements)
** Current wind speed in m/s (hover to see current wind gust speed)